EW9027 Weather Reports


time (UTC)temp
C
wind
direction
speed
KPH
gust
KPH
rain 1hr
cm
rain 24hr
cm
rain mn
cm
humidity
%
barometer
mb
20260905211602 15 276 0.0 3.2 0.00 0.71 0.71 62 1023.2
20260905210107 16 345 0.0 1.6 0.00 0.71 0.71 61 1023.1
20260905204552 16 269 0.0 3.2 0.00 0.71 0.71 60 1022.9
20260905203050 16 19 0.0 4.8 0.00 0.71 0.71 59 1022.8
20260905201548 16 281 0.0 4.8 0.00 0.71 0.71 59 1022.6
20260905200049 16 281 0.0 8.0 0.00 0.71 0.71 59 1022.4
20260905194546 17 226 0.0 3.2 0.00 0.71 0.71 60 1022.2
20260905193041 17 264 0.0 1.6 0.00 0.71 0.71 60 1022.0
20260905191543 17 272 0.0 9.7 0.00 0.71 0.71 58 1021.7
20260905190050 17 314 0.0 9.7 0.00 0.71 0.71 58 1021.6
20260905184541 18 80 1.6 6.4 0.00 0.71 0.71 61 1021.4
20260905183033 18 243 0.0 4.8 0.00 0.71 0.71 64 1021.1
20260905181531 18 134 0.0 8.0 0.00 0.71 0.71 63 1020.8
20260905180029 18 286 0.0 8.0 0.00 0.71 0.71 62 1020.5
20260905174528 18 217 1.6 8.0 0.00 0.71 0.71 63 1020.2
20260905173025 18 279 0.0 3.2 0.00 0.71 0.71 63 1020.0
20260905171527 19 261 0.0 8.0 0.00 0.71 0.71 61 1019.8
20260905170025 19 210 3.2 11.3 0.00 0.71 0.71 60 1019.6
20260905164522 20 278 1.6 9.7 0.00 0.71 0.71 60 1019.5
20260905163022 20 269 3.2 12.9 0.00 0.71 0.71 58 1019.5
20260905161521 20 304 3.2 12.9 0.00 0.71 0.71 57 1019.4
20260905160024 21 93 3.2 16.1 0.00 0.71 0.71 55 1019.3
20260905154520 21 317 6.4 22.5 0.00 0.71 0.71 53 1019.1
20260905153025 21 217 11.3 27.4 0.00 0.71 0.71 53 1019.2
20260905151520 21 26 6.4 19.3 0.00 0.71 0.71 53 1019.4
20260905150020 21 199 6.4 17.7 0.00 0.71 0.71 53 1019.2
20260905144524 21 141 6.4 19.3 0.00 0.71 0.71 54 1019.1
20260905143017 21 266 6.4 22.5 0.00 0.71 0.71 53 1019.1
20260905141517 21 229 4.8 20.9 0.00 0.71 0.71 54 1019.2
20260905140016 21 70 3.2 16.1 0.00 0.71 0.71 54 1019.2
20260905134515 21 328 3.2 17.7 0.00 0.71 0.71 54 1019.3
20260905133015 20 347 6.4 20.9 0.00 0.71 0.71 55 1019.3
20260905131513 20 278 6.4 19.3 0.00 0.71 0.71 55 1019.4
20260905130015 20 216 8.0 25.7 0.00 0.71 0.71 54 1019.6
20260905124521 20 212 8.0 22.5 0.00 0.71 0.71 54 1019.6
20260905123013 20 327 6.4 16.1 0.00 0.71 0.71 55 1019.7
20260905121512 20 254 9.7 22.5 0.00 0.71 0.71 53 1019.7
20260905120013 20 74 4.8 19.3 0.00 0.71 0.71 56 1019.6
20260905114511 20 218 4.8 20.9 0.00 0.71 0.71 56 1019.6
20260905113008 20 295 8.0 24.1 0.00 0.71 0.71 57 1019.7
20260905111508 20 308 8.0 20.9 0.00 0.71 0.71 58 1019.8
20260905110008 20 307 6.4 22.5 0.00 0.71 0.71 58 1019.6
20260905104505 20 245 4.8 19.3 0.00 0.71 0.71 62 1019.6
20260905103005 19 279 4.8 19.3 0.00 0.71 0.71 65 1019.6
20260905101503 18 203 8.0 20.9 0.00 0.71 0.71 66 1019.6
20260905100002 18 250 1.6 17.7 0.00 0.71 0.71 71 1019.7
20260905094502 18 252 3.2 9.7 0.00 0.71 0.71 69 1019.7
20260905093101 17 328 3.2 17.7 0.00 0.71 0.71 71 1019.8
20260905093002 17 270 4.8 17.7 0.00 0.71 0.71 71 1019.9
20260905091600 17 289 4.8 14.5 0.00 0.71 0.71 72 1019.8
20260905090127 16 25 1.6 16.1 0.00 0.71 0.71 77 1019.6
20260905084555 16 264 6.4 17.7 0.00 0.71 0.71 76 1019.4
20260905083055 15 269 4.8 19.3 0.00 0.71 0.71 81 1019.4
20260905081559 15 8 6.4 16.1 0.00 0.71 0.71 82 1019.3
20260905080055 15 252 3.2 8.0 0.00 0.71 0.71 87 1019.0
20260905074602 13 275 1.6 8.0 0.00 0.71 0.71 88 1019.0
20260905073046 13 263 3.2 11.3 0.00 0.71 0.71 88 1018.7
20260905071544 13 274 0.0 12.9 0.00 0.71 0.71 91 1018.5
20260905070046 13 251 4.8 12.9 0.00 0.71 0.71 91 1018.3
20260905064542 13 271 1.6 9.7 0.00 0.71 0.71 91 1018.2
20260905063042 13 77 0.0 4.8 0.03 0.71 0.71 92 1018.5
20260905061541 12 284 0.0 3.2 0.08 0.71 0.71 91 1018.1
20260905060048 12 103 0.0 6.4 0.15 0.71 0.71 91 1018.4
20260905054541 12 211 3.2 14.5 0.25 0.71 0.71 91 1017.2
20260905053038 12 184 4.8 12.9 0.28 0.71 0.71 91 1017.6
20260905051538 12 213 1.6 6.4 0.25 0.64 0.64 89 1018.3
20260905050031 12 314 0.0 11.3 0.18 0.53 0.53 87 1018.2
20260905044536 13 297 1.6 6.4 0.10 0.46 0.46 88 1018.1
20260905043026 13 232 0.0 3.2 0.05 0.41 0.41 88 1017.5
20260905041525 13 217 0.0 4.8 0.05 0.38 0.38 89 1017.4
20260905040027 13 274 0.0 3.2 0.13 0.36 0.36 90 1017.7
20260905034521 13 242 0.0 1.6 0.13 0.36 0.36 91 1017.1
20260905033020 14 244 0.0 3.2 0.15 0.36 0.36 90 1016.9
20260905031519 14 239 0.0 1.6 0.23 0.33 0.33 89 1017.0
20260905030018 14 265 1.6 4.8 0.15 0.23 0.23 88 1016.9
20260905024517 14 68 0.0 1.6 0.15 0.23 0.23 87 1015.8
20260905023019 15 297 0.0 1.6 0.23 0.23 0.23 87 1016.6
20260905021512 15 277 0.0 1.6 0.13 0.13 0.13 85 1016.0
20260905020012 15 64 0.0 1.6 0.10 0.10 0.10 82 1015.3
20260905014507 15 49 0.0 3.2 0.10 0.10 0.10 81 1015.3
20260905013002 16 15 3.2 8.0 0.00 0.00 0.00 72 1015.3
20260905011502 17 275 3.2 12.9 0.00 0.00 0.00 71 1014.9
20260905010108 17 8 1.6 11.3 0.00 0.00 0.00 71 1015.1
20260905004557 17 328 4.8 20.9 0.00 0.00 0.00 72 1015.2
20260905003056 17 56 6.4 16.1 0.00 0.00 0.00 75 1015.2
20260905001556 17 23 9.7 33.8 0.00 0.00 0.00 74 1014.6
20260905000058 20 304 16.1 29.0 0.00 0.00 0.00 66 1013.8
20260904234544 21 274 3.2 9.7 0.00 0.00 0.00 64 1012.5
20260904233043 21 283 1.6 9.7 0.00 0.00 0.00 63 1012.5
20260904231548 21 271 1.6 8.0 0.00 0.00 0.00 63 1012.4
20260904230058 21 246 1.6 6.4 0.00 0.00 0.00 63 1012.2
20260904224539 21 241 0.0 6.4 0.00 0.00 0.00 63 1012.0
20260904223046 21 243 0.0 6.4 0.00 0.00 0.00 63 1011.9
20260904221535 21 226 1.6 6.4 0.00 0.00 0.00 64 1011.9
20260904220031 20 197 0.0 4.8 0.00 0.00 0.00 66 1012.0
20260904214532 20 218 0.0 3.2 0.00 0.00 0.00 68 1011.9
20260904213029 20 214 0.0 3.2 0.00 0.00 0.00 68 1011.7